Glendale Luke AFB, AZ

2:57 PM MST on November 11, 2019 (GMT -0700)
Luke Air Force Base

Weather History for KLUF - September, 2019

Change the Weather History Date:

Tuesday, September 24, 2019

  Actual Average Record
Temperature  
Mean Temperature 76 °F -  
Max Temperature 88 °F 98 °F 109 °F (1947)
Min Temperature 64 °F 62 °F 47 °F (1941)
Cooling Degree Days 11    
Growing Degree Days 26 (Base 50)    
Moisture  
Dew Point 63 °F    
Average Humidity 76    
Maximum Humidity 100    
Minimum Humidity 33    
Precipitation  
Precipitation 0.16 in - - ()
Sea Level Pressure  
Sea Level Pressure 29.87 in    
Wind  
Wind Speed 7 mph (NNE)    
Max Wind Speed 16 mph    
Max Gust Speed 22 mph    
Visibility 10 miles    
Events Rain , Thunderstorm    
Averages and records for this station are not official NWS values.
T = Trace of Precipitation, MM = Missing Value Source: NWS Daily Summary

Daily Weather History Graph

Daily Weather History Graph

Search for Another Location

Airport or City:

Astronomy

Sep. 24, 2019 Rise Set
Actual Time 6:18 AM MST 6:23 PM MST
Civil Twilight 5:54 AM MST 6:48 PM MST
Nautical Twilight 5:25 AM MST 7:17 PM MST
Astronomical Twilight 4:55 AM MST 7:46 PM MST
Moon 1:25 AM MST (9/24) 3:56 PM MST (9/24)
Length of Visible Light 12h 54m
Length of Day
12h 04m
Waning Crescent, 22% of the Moon is Illuminated
Sep 24
Waning Crescent
Sep 28
New
Oct 5
First Quarter
Oct 13
Full
Oct 21
Last Quarter

Hourly Weather History & Observations

Time (MST) Temp. Heat Index Dew Point Humidity Pressure Visibility Wind Dir Wind Speed Gust Speed Precip Events Conditions
12:02 AM 64.4 °F - 62.6 °F 94% 29.97 in 10.0 mi NE 4.6 mph - N/A Rain , Thunderstorm Light Thunderstorms and Rain
12:17 AM 66.2 °F - 60.8 °F 83% 29.97 in 10.0 mi Calm Calm - N/A Rain Light Rain
12:47 AM 66.2 °F - 64.4 °F 94% 29.96 in 10.0 mi SSE 8.1 mph - N/A Rain Light Rain
12:56 AM 66.2 °F - 62.6 °F 88% 29.96 in 10.0 mi NW 4.6 mph - N/A   Overcast
12:58 AM 66.6 °F - 63.5 °F 90% 29.96 in 10.0 mi NW 4.6 mph - 0.03 in   Overcast
1:02 AM 66.2 °F - 64.4 °F 94% 29.95 in 10.0 mi NW 8.1 mph - N/A Rain Light Rain
1:12 AM 66.2 °F - 64.4 °F 94% 29.95 in 10.0 mi NNW 9.2 mph - N/A Rain Light Rain
1:22 AM 66.2 °F - 66.2 °F 100% 29.94 in 10.0 mi NNW 8.1 mph - N/A Rain Light Rain
1:32 AM 66.2 °F - 66.2 °F 100% 29.94 in 10.0 mi NW 4.6 mph - N/A Rain Light Rain
1:58 AM 66.9 °F - 65.5 °F 95% 29.93 in 10.0 mi NNE 6.9 mph - 0.03 in Rain Light Rain
2:08 AM 68.0 °F - 68.0 °F 100% 29.89 in 10.0 mi NW 11.5 mph - N/A Rain Light Rain
2:11 AM 68.0 °F - 68.0 °F 100% 29.90 in 9.0 mi NNW 16.1 mph 21.9 mph N/A Rain Light Rain
2:25 AM 66.2 °F - 66.2 °F 100% 29.91 in 10.0 mi SSW 13.8 mph - N/A Rain Light Rain
2:58 AM 67.6 °F - 65.5 °F 93% 29.89 in 9.0 mi NW 10.4 mph - 0.07 in Rain Light Rain
3:28 AM 68.0 °F - 62.6 °F 83% 29.88 in 10.0 mi WNW 11.5 mph - N/A Rain Light Rain
3:58 AM 67.5 °F - 62.8 °F 85% 29.86 in 10.0 mi ENE 10.4 mph - 0.03 in Rain Light Rain
4:07 AM 68.0 °F - 64.4 °F 88% 29.86 in 10.0 mi North 9.2 mph - N/A   Mostly Cloudy
4:27 AM 68.0 °F - 62.6 °F 83% 29.83 in 10.0 mi NW 13.8 mph - N/A   Overcast
4:37 AM 68.0 °F - 62.6 °F 83% 29.86 in 10.0 mi North 4.6 mph - N/A   Overcast
4:47 AM 68.0 °F - 62.6 °F 83% 29.86 in 10.0 mi SE 9.2 mph - N/A   Overcast
4:57 AM 68.0 °F - 64.4 °F 88% 29.88 in 10.0 mi SE 11.5 mph - N/A   Overcast
4:58 AM 67.6 °F - 63.9 °F 88% 29.88 in 10.0 mi SE 10.4 mph - 0.00 in   Overcast
5:58 AM 67.6 °F - 66.7 °F 97% 29.91 in 10.0 mi Calm Calm - N/A   Partly Cloudy
6:58 AM 67.5 °F - 66.6 °F 97% 29.92 in 10.0 mi West 5.8 mph - N/A   Clear
7:58 AM 68.0 °F - 65.5 °F 92% 29.93 in 10.0 mi SW 6.9 mph - N/A   Mostly Cloudy
8:58 AM 71.6 °F - 64.0 °F 77% 29.91 in 10.0 mi North 6.9 mph - N/A   Scattered Clouds
9:58 AM 74.1 °F - 64.0 °F 71% 29.91 in 10.0 mi East 3.5 mph - N/A   Partly Cloudy
10:58 AM 79.5 °F - 62.4 °F 56% 29.89 in 10.0 mi ESE 9.2 mph - N/A   Partly Cloudy
11:58 AM 82.2 °F 82.1 °F 58.1 °F 44% 29.88 in 10.0 mi East 11.5 mph 18.4 mph N/A   Partly Cloudy
12:58 PM 84.0 °F 83.2 °F 56.3 °F 39% 29.84 in 10.0 mi SE 8.1 mph - N/A   Partly Cloudy
1:58 PM 86.2 °F 84.9 °F 56.1 °F 36% 29.81 in 10.0 mi ESE 8.1 mph - N/A   Partly Cloudy
2:58 PM 88.0 °F 86.3 °F 55.2 °F 33% 29.78 in 10.0 mi SE 10.4 mph - N/A   Clear
3:58 PM 87.1 °F 85.5 °F 55.2 °F 34% 29.78 in 10.0 mi SE 12.7 mph - N/A   Clear
4:58 PM 87.3 °F 85.5 °F 54.7 °F 33% 29.77 in 10.0 mi East 9.2 mph - N/A   Clear
5:58 PM 85.6 °F 84.7 °F 57.0 °F 38% 29.77 in 10.0 mi Calm Calm - N/A   Clear
6:58 PM 82.9 °F 82.7 °F 58.1 °F 43% 29.77 in 10.0 mi South 4.6 mph - N/A   Clear
7:58 PM 79.5 °F - 63.9 °F 59% 29.80 in 10.0 mi Calm Calm - N/A   Clear
8:58 PM 76.8 °F - 64.0 °F 65% 29.79 in 10.0 mi NE 3.5 mph - N/A   Clear
9:58 PM 78.1 °F - 59.5 °F 53% 29.79 in 10.0 mi ESE 4.6 mph - N/A   Clear
10:58 PM 74.1 °F - 64.9 °F 73% 29.78 in 10.0 mi NNW 6.9 mph - N/A   Clear
11:58 PM 73.2 °F - 63.7 °F 72% 29.79 in 10.0 mi NW 3.5 mph - N/A   Clear